PROFILE

 METAR AND TAF INFORMATION
ADDS - METARS form results

(0547 UTC 22 September 2019)
http://aviationweather.gov/metar/data/
 
DAAG 220530Z 23003KT 4000 BR SCT010 SCT083 22/21 Q1014
DAAG 220500Z 22002KT 5000 FEW010 SCT200 22/21 Q1014
TAF DAAG 220500Z 2206/2306 VRB02KT 8000 FEW020 SCT100 PROB40 TEMPO 2206/2209 4000 BR PROB40 TEMPO 2208/2218 FEW026CB BECMG 2209/2212 35010KT BECMG 2216/2219 VRB02KT 

 AIRPORT MAP

 RUNWAY INFORMATION
Runway 05 Runway length 11483 ft Runway width 197 ft
Runway elevation 72 ft Runway displaced threshold 0 ft Runway heading 53
Runway 23 Runway length 11483 ft Runway width 197 ft
Runway elevation 82 ft Runway displaced threshold 0 ft Runway heading 233
Runway 09 Runway length 11483 ft Runway width 148 ft
Runway elevation 56 ft Runway displaced threshold 0 ft Runway heading 92
Runway 27 Runway length 11483 ft Runway width 148 ft
Runway elevation 82 ft Runway displaced threshold 0 ft Runway heading 272

 AIRPORT FREQUENCIES
Type APP Name ALGER APP Frequency 121.4 MHZ
Type GND Name ALGER GND Frequency 121.8 MHZ
Type TWR Name ALGER TWR Frequency 118.7 MHZ

 AIRPORT NEAR NAVIGATION AIDS
Type VOR-DME Name Alger Frequency 112500 KHZ
Type NDB Name Houari Boumediene Frequency 416 KHZ
Type VOR Name Alger Frequency 113900 KHZ
Type NDB Name Houari Boumediene Frequency 370 KHZ